Temperature
9 9 9 9 8 8 8 8 8 8 8 8 8 8 8 8 8 9 9 9 9 9 9 9 8 7 7 7 6 6 6 6 6 6 6 6 6 6 6 6 6 6 6
9 9 8 8 8 8 8 8 7 7 7 7 8 8 8 8 8 8 8 9 9 9 9 9 9 8 7 7 6 6 6 6 6 6 6 6 6 6 6 6 5 5 5
9 8 8 8 8 8 8 7 7 7 7 7 7 7 7 8 8 8 8 8 9 9 9 9 9 8 8 8 7 7 6 6 6 6 6 6 5 5 5 5 5 5 5
8 8 8 8 8 7 7 7 7 7 7 7 7 7 7 7 7 8 8 8 8 9 9 9 9 9 8 8 8 7 7 6 6 6 6 6 5 5 5 5 5 5 5
9 8 8 8 7 7 7 7 7 7 6 6 6 6 6 6 7 7 8 8 8 8 9 9 9 9 9 9 8 8 7 7 7 6 6 5 5 5 5 5 5 5 5
9 8 8 8 7 7 7 7 7 7 6 6 6 6 6 6 6 7 7 8 8 8 9 9 9 9 9 9 9 8 8 7 7 6 6 5 5 5 5 5 4 4 4
9 9 8 8 8 7 7 7 7 6 6 6 5 5 5 5 6 6 7 8 8 8 8 9 9 9 9 9 9 8 8 7 7 6 5 5 5 5 5 4 4 4 4
9 9 8 8 8 7 7 7 7 6 6 6 5 4 4 5 6 5 6 6 7 7 7 8 8 8 8 8 9 8 8 8 7 6 5 5 4 4 4 4 4 4 4
9 9 8 8 8 7 7 7 7 6 6 5 4 4 3 5 5 5 4 4 5 5 6 6 7 7 7 7 7 8 8 7 7 6 5 4 4 4 4 4 4 4 4
9 8 8 8 8 7 7 7 7 6 5 5 4 4 4 3 2 3 4 4 4 4 4 4 5 5 6 6 6 6 7 7 7 6 5 4 4 4 4 4 4 4 4
8 8 8 7 7 7 7 7 6 6 5 5 5 4 3 2 1 0 2 3 3 3 3 3 3 3 4 5 5 6 6 6 6 6 5 4 4 4 4 4 4 4 4
7 7 7 7 7 7 6 6 6 5 5 5 4 4 3 2 2 1 1 2 3 3 3 3 2 2 3 4 4 5 5 5 5 5 5 4 4 3 3 4 4 4 4
7 7 7 6 6 6 6 6 5 5 5 4 4 4 3 2 2 1 1 1 2 2 2 2 2 2 2 3 3 4 4 4 4 4 4 4 3 3 3 3 3 4 4
6 6 6 6 6 5 5 5 5 5 4 4 4 3 3 2 2 1 1 0 0 1 2 2 2 2 2 2 2 2 3 3 3 3 3 2 2 2 2 2 2 3 3
5 5 5 5 5 5 5 4 4 4 3 3 3 3 2 2 2 1 1 -0 -1 -1 1 2 2 2 2 1 1 1 1 2 2 2 2 1 1 1 1 1 1 2 2
5 5 4 4 4 4 4 3 3 3 2 2 2 1 1 1 1 0 -0 -1 -1 -1 -1 0 1 1 1 -0 -0 -0 -0 0 0 1 1 0 0 -0 -0 -0 0 1 1
4 4 4 3 3 3 3 2 2 1 1 1 1 0 -0 -0 -1 -1 -1 -1 -2 -2 -2 -1 -0 -0 -1 -1 -1 -2 -1 -1 -1 -1 -1 -1 -1 -1 -1 -1 -1 -0 0
3 3 3 2 2 2 2 1 1 0 -0 -0 -1 -1 -1 -1 -2 -2 -2 -2 -2 -2 -2 -2 -1 -1 -1 -2 -2 -2 -2 -2 -2 -2 -2 -2 -2 -2 -2 -2 -1 -1 -1
3 2 2 1 1 1 1 0 -0 -1 -1 -1 -2 -2 -2 -2 -2 -2 -3 -3 -3 -3 -3 -3 -2 -2 -2 -2 -3 -3 -3 -3 -3 -3 -3 -3 -2 -2 -2 -2 -2 -2 -1
2 1 1 1 0 0 -0 -1 -1 -2 -2 -2 -3 -3 -3 -3 -3 -3 -3 -3 -3 -3 -3 -3 -3 -3 -3 -3 -3 -4 -4 -4 -4 -3 -3 -3 -3 -3 -3 -3 -2 -2 -2
1 1 0 -0 -1 -1 -1 -2 -2 -3 -3 -3 -4 -4 -4 -4 -4 -3 -3 -3 -3 -3 -3 -3 -3 -3 -3 -3 -3 -4 -4 -4 -4 -4 -4 -4 -4 -4 -3 -3 -3 -3 -2
-0 -1 -1 -1 -2 -2 -2 -3 -4 -4 -4 -4 -4 -4 -4 -4 -4 -4 -3 -3 -3 -3 -3 -3 -3 -3 -3 -3 -3 -4 -4 -4 -4 -4 -4 -4 -4 -4 -4 -4 -4 -3 -3
-1 -2 -2 -2 -3 -3 -3 -4 -4 -5 -5 -5 -5 -4 -4 -4 -4 -4 -4 -4 -4 -4 -3 -3 -3 -3 -3 -3 -3 -4 -4 -4 -4 -4 -4 -5 -5 -5 -4 -4 -4 -4 -4
-2 -3 -3 -3 -4 -3 -4 -4 -5 -5 -5 -5 -5 -5 -5 -4 -4 -4 -4 -4 -4 -4 -4 -4 -4 -4 -4 -4 -4 -4 -4 -4 -4 -4 -5 -5 -5 -5 -5 -5 -5 -5 -5
-3 -3 -4 -4 -4 -4 -4 -5 -5 -5 -5 -5 -5 -5 -5 -4 -4 -4 -4 -4 -4 -4 -4 -4 -4 -4 -4 -4 -4 -4 -4 -4 -5 -5 -5 -5 -5 -5 -5 -5 -5 -5 -5
-4 -4 -5 -5 -5 -5 -5 -5 -6 -6 -5 -5 -5 -5 -5 -4 -4 -4 -4 -4 -4 -4 -4 -4 -4 -4 -4 -4 -4 -4 -4 -4 -4 -5 -5 -5 -6 -6 -6 -6 -6 -5 -5
Wind_Speed
10 11 11 11 11 11 11 11 12 12 13 13 13 14 14 14 14 14 13 15 18 20 20 21 21 20 20 19 19 18 18 17 17 16 15 15 14 13 12 11 10 10 9
12 11 12 12 13 13 13 13 14 13 13 13 14 15 16 16 16 17 16 16 19 22 23 24 24 24 23 23 22 22 21 21 20 19 19 18 17 16 15 14 13 13 12
15 13 12 12 13 14 15 14 15 13 12 13 14 17 17 18 18 18 18 18 18 20 25 26 27 27 27 26 26 25 24 24 23 23 22 21 20 19 18 17 16 15 14
17 15 12 13 15 14 13 12 11 11 12 12 13 13 14 15 18 20 20 20 19 19 21 27 29 30 30 30 29 29 28 27 27 26 25 24 23 22 21 21 19 18 17
16 16 14 14 15 12 11 11 11 12 13 14 13 13 13 14 16 18 20 22 22 22 21 23 28 32 33 33 33 32 32 31 30 29 29 28 27 26 25 24 22 21 20
15 15 14 15 15 10 11 11 13 13 12 13 13 14 15 16 15 16 18 20 22 24 25 24 23 25 32 36 36 36 35 34 33 32 32 31 30 29 28 26 25 24 23
14 14 12 13 12 11 13 14 13 14 12 11 10 12 15 18 19 17 16 17 19 23 24 25 23 22 22 29 35 38 38 37 36 35 34 34 33 32 31 29 28 27 26
13 12 13 11 11 11 14 14 13 11 10 9 8 9 9 11 13 14 14 15 17 17 18 22 23 23 22 21 23 32 37 39 39 38 37 36 35 35 34 32 31 30 29
11 12 13 13 12 12 12 13 13 14 12 11 11 9 8 8 9 8 12 13 14 14 15 16 21 23 24 22 22 26 32 36 38 39 39 38 37 37 36 35 34 32 31
9 11 12 13 12 11 13 13 13 13 13 12 11 12 14 11 10 9 9 11 13 15 16 15 16 20 22 22 23 26 29 32 35 37 39 39 39 39 38 37 36 35 33
7 9 10 10 11 11 13 14 14 14 13 14 13 12 14 14 16 13 15 16 15 15 15 17 16 17 21 23 22 26 30 32 33 35 36 38 39 40 40 39 38 37 35
6 7 8 9 10 10 12 13 13 15 15 16 14 13 14 12 12 14 17 18 18 16 17 15 16 16 19 21 25 28 31 32 33 34 35 36 37 39 40 40 39 38 37
7 8 8 9 10 11 12 12 13 14 16 17 17 15 15 16 15 16 17 19 20 18 18 16 16 16 17 20 22 27 31 33 34 34 34 35 36 37 38 39 40 39 38
9 10 10 11 12 12 12 12 12 14 14 16 18 18 16 16 16 16 17 17 19 20 19 21 16 16 16 18 21 24 24 30 32 33 34 34 35 36 36 38 39 39 38
9 11 12 12 13 13 13 14 13 15 15 16 17 18 17 16 16 16 16 16 17 20 22 22 18 17 15 16 19 21 22 26 29 31 32 33 34 35 36 36 37 38 38
12 13 13 14 14 14 15 15 15 16 17 17 15 18 18 16 16 16 16 16 16 18 22 21 18 17 15 14 19 21 22 26 29 30 30 31 32 33 34 35 36 37 37
13 14 14 15 16 16 16 16 17 18 18 19 18 19 20 20 17 16 16 16 17 17 21 24 20 18 20 19 17 18 19 19 19 27 29 30 31 32 33 34 35 36 37
14 15 15 16 17 17 17 18 19 19 20 20 20 20 21 18 20 18 16 18 17 18 19 25 23 18 20 18 18 19 17 16 17 22 26 28 29 30 31 32 34 35 35
16 16 16 17 17 17 18 19 20 20 20 21 20 20 21 20 21 18 19 18 16 16 17 20 22 18 16 15 16 17 19 17 17 19 23 26 28 30 30 31 32 33 34
17 17 18 18 18 17 17 18 19 20 20 20 20 20 21 20 21 21 18 19 17 17 16 18 19 18 16 15 13 15 15 15 16 15 18 19 23 26 29 30 31 31 31
17 18 18 19 18 16 14 15 15 18 19 20 20 20 21 23 26 22 18 16 16 16 16 16 18 17 16 13 13 13 15 15 15 14 13 14 14 15 17 24 29 29 30
18 18 18 19 19 16 21 25 23 20 20 20 20 20 20 22 24 28 30 28 24 18 16 16 17 17 18 16 14 13 14 14 13 10 13 14 12 13 13 13 20 26 29
19 19 19 19 20 20 24 26 27 22 21 20 20 19 17 17 22 18 22 26 26 28 27 19 19 19 19 16 15 16 16 15 17 12 9 12 12 13 12 14 21 23 25
18 18 19 20 20 21 25 26 27 22 20 19 19 19 19 19 18 18 16 16 17 18 21 17 15 17 18 16 14 15 15 16 15 12 11 11 11 12 12 12 19 23 24
19 19 19 20 21 21 24 25 25 17 16 18 18 18 19 19 23 26 19 17 18 16 20 25 26 24 26 26 20 12 13 12 13 12 12 10 10 11 11 11 14 21 24
19 19 19 19 20 20 23 25 25 14 16 16 16 16 20 22 24 26 19 17 18 16 15 15 17 19 18 19 22 14 12 12 10 10 12 11 10 8 7 9 11 11 14
Wind_Direction
228 232 237 239 241 243 242 245 249 253 254 256 255 257 259 258 257 256 257 252 253 256 258 261 262 261 258 255 253 251 250 249 249 248 248 247 247 248 248 249 250 251 254
233 236 242 244 246 246 248 250 254 258 259 258 259 258 259 260 258 255 255 254 250 251 253 256 257 258 258 257 254 251 248 247 247 246 246 246 245 245 246 247 248 248 249
239 240 245 247 248 249 250 253 257 260 261 261 261 262 261 259 258 257 256 254 253 249 248 250 253 254 256 256 255 252 249 247 245 244 244 244 244 244 244 244 245 245 246
243 246 248 250 252 252 250 251 255 257 258 260 263 263 261 258 258 258 256 253 251 250 248 246 248 250 251 252 252 252 250 248 245 243 242 241 241 241 242 242 242 243 243
245 246 249 253 255 251 250 252 254 256 261 263 265 266 264 262 260 258 255 253 250 248 249 248 246 247 248 249 249 249 249 247 246 243 242 240 239 239 240 240 240 240 240
246 247 250 254 255 250 250 251 254 256 259 267 273 272 268 264 260 256 255 254 251 248 246 247 247 247 246 246 247 247 247 246 245 244 242 240 239 238 238 238 238 238 239
251 248 250 255 252 249 252 255 256 259 260 263 272 275 269 260 254 252 251 251 250 247 245 244 244 244 246 245 245 245 245 245 245 244 242 241 239 237 237 236 237 237 237
256 253 253 255 254 253 256 256 255 256 259 250 251 277 285 279 254 244 245 247 250 249 247 244 243 242 242 244 244 243 244 245 245 244 242 241 240 238 236 235 235 235 236
263 257 256 258 257 254 256 256 253 249 253 253 237 244 267 277 299 259 243 245 248 249 249 247 244 243 242 241 243 243 242 244 245 245 243 242 241 239 237 235 234 234 234
271 265 262 261 261 258 257 258 255 252 251 255 252 238 244 260 274 285 263 250 252 254 256 253 250 247 244 242 241 241 242 243 244 246 245 244 242 240 238 236 234 233 233
283 275 270 267 263 261 260 260 259 254 249 250 252 251 250 251 251 257 274 275 268 259 256 255 255 252 248 245 244 242 242 243 244 245 246 245 244 242 240 238 235 234 232
297 288 281 273 269 266 265 263 262 258 254 253 252 251 250 250 250 252 265 272 273 271 266 258 254 253 251 249 247 244 243 244 245 246 246 246 245 244 242 240 237 235 233
304 303 294 284 278 272 269 267 264 262 259 256 254 253 251 251 253 256 264 272 275 275 271 265 257 254 251 250 251 247 247 247 247 247 246 245 245 245 244 242 240 237 234
302 303 296 287 283 280 275 270 267 264 263 260 259 257 256 255 254 253 257 267 275 277 272 266 260 253 251 251 251 248 251 250 249 248 247 245 244 244 244 243 242 240 237
299 297 294 290 286 283 279 276 270 270 268 265 264 262 260 258 256 255 255 254 261 274 276 274 270 263 254 252 251 251 252 252 251 251 249 247 245 243 243 242 241 240 238
299 296 294 292 289 287 283 279 276 274 273 270 268 266 265 263 261 258 255 254 252 257 270 273 272 270 265 257 256 255 255 256 254 253 251 249 246 244 242 241 240 239 238
299 297 295 293 291 289 287 283 279 278 277 275 272 270 268 267 267 264 261 257 255 253 262 272 272 270 265 260 257 255 256 256 256 252 252 251 249 246 244 242 240 239 237
299 296 295 292 290 289 287 285 284 283 280 278 277 276 274 273 268 266 263 260 258 255 258 268 273 273 268 264 260 257 256 256 256 256 253 252 251 249 246 243 241 239 237
299 297 295 292 291 289 288 286 285 285 283 281 280 278 276 274 271 268 266 264 262 261 258 263 270 272 270 265 262 257 255 255 257 257 255 253 252 250 248 244 241 239 237
300 298 296 293 291 289 286 285 285 285 284 282 280 277 275 272 270 270 269 266 265 264 262 261 266 269 266 263 257 255 255 251 252 252 253 252 251 251 249 247 243 240 237
299 297 295 294 292 289 283 282 282 282 281 280 279 275 273 270 269 269 266 263 260 260 260 261 263 265 262 256 249 246 250 253 252 246 248 247 246 244 243 244 243 241 239
300 298 296 295 293 290 290 292 291 289 287 284 283 281 278 275 274 273 273 271 267 263 260 260 263 261 262 257 251 244 244 246 251 237 237 243 238 240 239 237 238 238 237
302 300 298 296 295 294 295 296 295 294 290 287 285 284 283 280 280 276 276 276 276 274 270 266 264 263 263 258 253 247 240 239 244 239 231 242 235 237 235 235 238 238 238
303 300 299 298 297 297 299 299 300 297 291 287 285 284 284 284 281 278 274 270 268 267 267 269 264 265 265 264 253 248 248 247 248 243 225 240 237 236 233 232 235 235 236
303 301 300 299 299 299 300 301 301 297 292 289 287 285 283 283 282 282 279 275 273 270 269 266 264 263 262 260 253 246 240 240 244 236 220 226 237 237 235 232 230 230 233
302 302 299 299 298 299 300 302 302 297 294 292 290 287 285 284 285 286 282 279 277 275 272 270 267 267 267 266 264 251 239 237 238 235 214 210 222 220 233 230 226 224 228
Height
1557 1558 1558 1558 1558 1557 1557 1556 1556 1555 1554 1553 1551 1550 1549 1548 1547 1546 1545 1544 1543 1542 1541 1541 1541 1540 1540 1540 1539 1539 1538 1538 1537 1537 1536 1536 1535 1535 1535 1534 1534 1533 1533
1554 1554 1554 1554 1554 1554 1553 1553 1552 1551 1549 1548 1547 1546 1544 1543 1542 1541 1539 1538 1538 1537 1536 1536 1535 1535 1535 1535 1535 1535 1534 1534 1533 1533 1533 1532 1532 1532 1531 1531 1531 1531 1530
1550 1550 1550 1550 1549 1549 1549 1548 1547 1546 1544 1543 1541 1540 1538 1537 1536 1535 1533 1532 1531 1530 1530 1530 1529 1529 1529 1529 1529 1529 1529 1529 1528 1528 1528 1528 1528 1527 1527 1527 1527 1527 1527
1546 1546 1545 1545 1545 1544 1543 1542 1541 1540 1538 1536 1535 1533 1531 1529 1528 1527 1526 1524 1523 1522 1522 1522 1522 1522 1521 1521 1521 1522 1522 1522 1522 1522 1522 1522 1522 1522 1522 1523 1523 1523 1523
1540 1540 1540 1540 1539 1538 1537 1536 1535 1534 1532 1530 1528 1525 1523 1521 1519 1518 1517 1516 1514 1513 1513 1513 1513 1513 1513 1513 1513 1513 1514 1514 1515 1515 1515 1516 1516 1516 1517 1517 1517 1518 1518
1535 1535 1534 1534 1533 1531 1530 1529 1528 1527 1525 1523 1520 1517 1514 1512 1510 1508 1507 1506 1505 1504 1503 1503 1503 1502 1503 1503 1503 1503 1504 1505 1506 1506 1507 1508 1508 1509 1510 1511 1511 1512 1513
1530 1529 1528 1527 1526 1525 1524 1523 1521 1520 1518 1517 1513 1508 1505 1503 1499 1497 1496 1496 1495 1495 1493 1493 1492 1491 1491 1491 1492 1492 1493 1494 1495 1497 1498 1499 1500 1501 1502 1503 1504 1505 1506
1525 1524 1523 1522 1521 1519 1518 1517 1515 1513 1511 1510 1507 1504 1499 1496 1492 1488 1487 1485 1485 1485 1483 1482 1481 1480 1479 1479 1479 1480 1481 1482 1484 1486 1487 1489 1490 1492 1493 1495 1496 1498 1499
1521 1520 1518 1517 1515 1513 1511 1510 1509 1506 1504 1503 1501 1499 1496 1490 1487 1482 1479 1477 1476 1474 1473 1472 1470 1469 1468 1467 1467 1468 1469 1470 1471 1473 1475 1478 1480 1482 1484 1486 1487 1489 1491
1518 1516 1514 1512 1510 1508 1506 1504 1502 1500 1497 1495 1494 1491 1489 1486 1483 1474 1473 1470 1467 1465 1463 1461 1459 1458 1457 1456 1455 1456 1457 1458 1459 1460 1462 1465 1468 1471 1473 1476 1478 1480 1482
1514 1511 1509 1507 1505 1503 1500 1498 1496 1493 1490 1488 1486 1484 1481 1478 1474 1470 1462 1462 1461 1458 1454 1451 1449 1447 1446 1444 1443 1443 1445 1446 1447 1448 1449 1452 1455 1459 1462 1465 1468 1470 1472
1510 1507 1505 1502 1500 1497 1494 1491 1489 1486 1483 1480 1478 1475 1473 1470 1467 1463 1456 1452 1450 1448 1447 1443 1440 1437 1435 1433 1432 1432 1433 1433 1434 1435 1436 1438 1441 1445 1449 1453 1457 1460 1462
1505 1502 1499 1497 1494 1491 1488 1484 1481 1478 1475 1472 1469 1466 1463 1460 1458 1455 1450 1443 1439 1436 1436 1433 1431 1428 1425 1423 1421 1420 1421 1421 1422 1422 1424 1425 1428 1431 1435 1440 1445 1448 1452
1500 1497 1494 1491 1487 1484 1480 1477 1473 1470 1467 1463 1460 1457 1454 1451 1448 1445 1441 1438 1431 1425 1423 1422 1421 1418 1415 1413 1410 1410 1409 1409 1410 1410 1411 1413 1415 1418 1421 1426 1431 1436 1440
1495 1492 1488 1484 1481 1477 1473 1469 1465 1461 1458 1454 1451 1448 1444 1441 1438 1435 1432 1429 1426 1417 1408 1409 1411 1409 1407 1404 1401 1400 1399 1398 1399 1399 1399 1401 1403 1405 1409 1413 1417 1423 1428
1489 1485 1481 1477 1473 1469 1465 1461 1456 1452 1448 1444 1441 1437 1434 1431 1428 1425 1422 1419 1416 1410 1400 1393 1397 1399 1397 1394 1392 1391 1389 1388 1388 1388 1388 1390 1391 1394 1396 1400 1405 1410 1415
1483 1478 1473 1469 1465 1460 1456 1452 1447 1443 1438 1434 1431 1427 1423 1420 1417 1414 1411 1408 1405 1402 1393 1382 1385 1387 1386 1384 1382 1381 1379 1378 1377 1377 1378 1379 1380 1383 1385 1389 1393 1398 1403
1475 1470 1465 1460 1456 1451 1447 1442 1437 1433 1428 1423 1420 1416 1412 1410 1406 1403 1400 1396 1394 1391 1387 1377 1372 1376 1376 1375 1373 1371 1370 1368 1367 1366 1367 1368 1370 1372 1374 1378 1381 1386 1391
1467 1462 1457 1451 1446 1441 1436 1432 1427 1422 1417 1413 1408 1404 1400 1398 1394 1391 1389 1385 1382 1380 1377 1371 1363 1364 1364 1365 1363 1361 1360 1358 1357 1357 1357 1357 1358 1361 1363 1366 1370 1374 1379
1459 1453 1448 1442 1436 1431 1426 1421 1416 1410 1405 1400 1396 1392 1389 1386 1382 1379 1377 1374 1372 1369 1366 1362 1356 1354 1354 1354 1353 1351 1349 1348 1347 1347 1346 1347 1347 1349 1352 1355 1359 1363 1367
1450 1444 1438 1432 1427 1421 1415 1410 1405 1399 1394 1388 1384 1381 1377 1374 1371 1369 1366 1362 1361 1358 1355 1351 1347 1344 1343 1343 1342 1341 1340 1339 1338 1338 1337 1337 1338 1338 1340 1343 1347 1351 1355
1441 1435 1429 1422 1416 1411 1406 1401 1396 1389 1384 1379 1374 1370 1366 1363 1360 1357 1355 1352 1351 1347 1343 1341 1337 1334 1332 1333 1333 1332 1331 1330 1328 1329 1329 1327 1329 1328 1330 1333 1335 1339 1344
1432 1426 1420 1413 1407 1401 1396 1391 1386 1380 1374 1369 1364 1360 1356 1353 1350 1347 1344 1341 1339 1336 1334 1332 1327 1324 1323 1323 1323 1322 1321 1319 1319 1321 1321 1319 1321 1320 1321 1323 1326 1329 1333
1424 1417 1411 1404 1398 1392 1387 1381 1376 1371 1365 1360 1356 1352 1348 1344 1341 1338 1334 1330 1327 1324 1323 1320 1317 1314 1314 1313 1313 1312 1311 1311 1311 1312 1313 1312 1313 1313 1314 1315 1317 1320 1323
1415 1408 1402 1395 1389 1383 1378 1373 1368 1362 1356 1352 1348 1344 1340 1335 1332 1329 1326 1321 1317 1314 1312 1310 1307 1305 1304 1303 1303 1302 1301 1302 1300 1301 1303 1304 1305 1307 1308 1308 1309 1312 1315
1406 1399 1393 1387 1381 1375 1370 1365 1361 1355 1349 1344 1339 1335 1331 1327 1324 1321 1317 1312 1308 1305 1303 1300 1298 1296 1294 1293 1293 1293 1292 1292 1292 1293 1293 1296 1297 1300 1301 1301 1303 1305 1307